Find Starlink 37718

NORAD ID: 69242 Int'l Des: 2026-117 Owner: SPXS Country: US Constellation: starlink operational
LEOCIRCULAR

現在のビュー

3D地球を読み込み中...

About Starlink 37718

Starlink 37718 (NORAD 69242) is a starlink constellation satellite (v2 mini) launched May 29, 2026 by SPXS of US. It operates in LEO, CIRCULAR orbit with a mass of 575.00 kg.

Starlink 37718について

説明を読み込み中...

次回通過

Passes for default location (London). Set your location on the main map for personalized predictions.

高度履歴

Loading altitude history...

軌道要素

1 69242U 26117E 26195.91909563 .00012518 00000-0 39111-3 0 9990
2 69242 53.1604 109.5276 0001258 76.3591 283.7552 15.33565142 7296
Epoch: Jul 14, 2026 • Age: 7 hours

現在のステータス

高度 470.9 km
遠地点 / 近地点 N/A
速度 7.64 km/s
衛星直下点 53.17°N, 170.92°W
打ち上げ日 May 29, 2026
運用期間 0.1 years
タイプ internet

技術仕様

分類 Payload
質量 575.00 kg
乾燥質量 530.00 kg
総質量 575.00 kg
長さ 0.30 m
直径 4.10 m
スパン 29.00 m
形状 Box + pan
製造者 SPXS
バスタイプ Starlink V2MO
フェーズステータス In Orbit
所有者/国 SPXS/US

Most Searched